When you browse on this site, cookies collect data to enhance your experience and personalize the content and advertising you see.
Visit our Privacy Policy to learn more. By continuing to use the site, you agree to this use of cookies and data.
  • en France
  • Liste des pays
  • À 7 jours
  • Température de l'eau
  • Carte satellitaire
  • Carte météo
  • Widgets météo
  • user-avatar
    Se connecter

    Météo par heure à Orléans

    Ce jour, 26 Avril, Vendredi

    Heure Température Précipitation Vent Pression Humidité
    00:00 +6°C° 0 mm 2 m/s 748 mmHg 94%
    01:00 +6°C° 0 mm 2 m/s 748 mmHg 94%
    02:00 +6°C° 0 mm 2 m/s 748 mmHg 93%
    03:00 +5°C° 0 mm 3 m/s 748 mmHg 93%
    04:00 +5°C° 0 mm 3 m/s 748 mmHg 91%
    05:00 +5°C° 0 mm 3 m/s 748 mmHg 89%
    06:00 +7°C° 0 mm 3 m/s 749 mmHg 87%
    07:00 +9°C° 0 mm 3 m/s 749 mmHg 82%
    08:00 +10°C° 0 mm 4 m/s 749 mmHg 76%
    09:00 +12°C° 0 mm 4 m/s 750 mmHg 70%
    10:00 +14°C° 0 mm 4 m/s 750 mmHg 65%
    11:00 +15°C° 0 mm 4 m/s 750 mmHg 60%
    12:00 +17°C° 0 mm 4 m/s 750 mmHg 55%
    13:00 +17°C° 0.2 mm 4 m/s 750 mmHg 55%
    14:00 +17°C° 0.2 mm 4 m/s 750 mmHg 56%
    15:00 +18°C° 0.2 mm 4 m/s 751 mmHg 56%
    16:00 +17°C° 0.1 mm 4 m/s 751 mmHg 62%
    17:00 +14°C° 0.1 mm 4 m/s 751 mmHg 68%
    18:00 +13°C° 0.1 mm 4 m/s 752 mmHg 74%
    19:00 +12°C° 0.1 mm 5 m/s 752 mmHg 78%
    20:00 +10°C° 0.1 mm 5 m/s 753 mmHg 82%
    21:00 +9°C° 0.1 mm 5 m/s 754 mmHg 86%
    22:00 +9°C° 0 mm 5 m/s 754 mmHg 85%
    23:00 +8°C° 0 mm 5 m/s 754 mmHg 85%

    Demain, 27 Avril, Samedi

    Heure Température Précipitation Vent Pression Humidité
    00:00 +7°C° 0 mm 5 m/s 754 mmHg 84%
    01:00 +7°C° 0.2 mm 5 m/s 754 mmHg 86%
    02:00 +7°C° 0.2 mm 5 m/s 754 mmHg 88%
    03:00 +7°C° 0.2 mm 5 m/s 753 mmHg 91%
    04:00 +8°C° 0.2 mm 5 m/s 754 mmHg 91%
    05:00 +8°C° 0.2 mm 5 m/s 754 mmHg 91%
    06:00 +8°C° 0.2 mm 5 m/s 754 mmHg 91%
    07:00 +9°C° 0 mm 6 m/s 754 mmHg 82%
    08:00 +9°C° 0 mm 6 m/s 755 mmHg 72%
    09:00 +10°C° 0 mm 6 m/s 755 mmHg 62%
    10:00 +10°C° 0.1 mm 6 m/s 755 mmHg 61%
    11:00 +10°C° 0.1 mm 6 m/s 756 mmHg 59%
    12:00 +11°C° 0.1 mm 6 m/s 756 mmHg 58%
    13:00 +11°C° 0.1 mm 6 m/s 756 mmHg 58%
    14:00 +11°C° 0.1 mm 7 m/s 756 mmHg 58%
    15:00 +11°C° 0.1 mm 7 m/s 756 mmHg 58%
    16:00 +10°C° 0.1 mm 6 m/s 756 mmHg 60%
    17:00 +10°C° 0.1 mm 5 m/s 757 mmHg 63%
    18:00 +9°C° 0.1 mm 5 m/s 757 mmHg 65%
    19:00 +8°C° 0 mm 5 m/s 757 mmHg 68%
    20:00 +7°C° 0 mm 4 m/s 757 mmHg 71%
    21:00 +7°C° 0 mm 4 m/s 758 mmHg 74%
    22:00 +7°C° 0.1 mm 4 m/s 758 mmHg 76%
    23:00 +7°C° 0.1 mm 4 m/s 758 mmHg 77%

    Après-demain, 28 Avril, Dimanche

    Heure Température Précipitation Vent Pression Humidité
    00:00 +6°C° 0.1 mm 4 m/s 758 mmHg 78%
    01:00 +6°C° 0 mm 4 m/s 758 mmHg 79%
    02:00 +6°C° 0 mm 4 m/s 757 mmHg 81%
    03:00 +6°C° 0 mm 4 m/s 757 mmHg 82%
    04:00 +6°C° 0 mm 4 m/s 757 mmHg 83%
    05:00 +6°C° 0 mm 4 m/s 757 mmHg 84%
    06:00 +6°C° 0 mm 4 m/s 757 mmHg 84%
    07:00 +7°C° 0.1 mm 5 m/s 757 mmHg 82%
    08:00 +7°C° 0.1 mm 5 m/s 757 mmHg 79%
    09:00 +8°C° 0.1 mm 5 m/s 757 mmHg 76%
    10:00 +9°C° 0.2 mm 5 m/s 757 mmHg 74%
    11:00 +9°C° 0.2 mm 5 m/s 757 mmHg 72%
    12:00 +10°C° 0.2 mm 5 m/s 757 mmHg 70%
    13:00 +10°C° 0.2 mm 5 m/s 757 mmHg 70%
    14:00 +12°C° 0.2 mm 5 m/s 757 mmHg 70%
    15:00 +11°C° 0.2 mm 6 m/s 756 mmHg 70%
    16:00 +10°C° 0.2 mm 5 m/s 756 mmHg 75%
    17:00 +10°C° 0.2 mm 5 m/s 756 mmHg 79%
    18:00 +10°C° 0.2 mm 4 m/s 756 mmHg 84%
    19:00 +9°C° 0.1 mm 3 m/s 756 mmHg 87%
    20:00 +9°C° 0.1 mm 3 m/s 756 mmHg 91%
    21:00 +8°C° 0.1 mm 2 m/s 756 mmHg 95%
    22:00 +8°C° 0.1 mm 2 m/s 756 mmHg 95%
    23:00 +7°C° 0.1 mm 2 m/s 756 mmHg 96%

    29 Avril, Lundi

    Heure Température Précipitation Vent Pression Humidité
    00:00 +7°C° 0.1 mm 2 m/s 756 mmHg 97%
    01:00 +7°C° 0 mm 2 m/s 755 mmHg 97%
    02:00 +7°C° 0 mm 2 m/s 755 mmHg 98%
    03:00 +7°C° 0 mm 2 m/s 755 mmHg 98%
    04:00 +7°C° 0 mm 2 m/s 755 mmHg 97%
    05:00 +8°C° 0 mm 2 m/s 755 mmHg 96%
    06:00 +8°C° 0 mm 2 m/s 755 mmHg 96%
    07:00 +10°C° 0 mm 2 m/s 755 mmHg 88%
    08:00 +12°C° 0 mm 2 m/s 755 mmHg 81%
    09:00 +13°C° 0 mm 2 m/s 755 mmHg 73%
    10:00 +14°C° 0 mm 2 m/s 755 mmHg 66%
    11:00 +14°C° 0 mm 3 m/s 755 mmHg 58%
    12:00 +16°C° 0 mm 3 m/s 755 mmHg 50%
    13:00 +16°C° 0 mm 3 m/s 755 mmHg 52%
    14:00 +16°C° 0 mm 3 m/s 754 mmHg 53%
    15:00 +15°C° 0 mm 4 m/s 754 mmHg 54%
    16:00 +14°C° 0 mm 3 m/s 754 mmHg 60%
    17:00 +13°C° 0 mm 3 m/s 754 mmHg 66%
    18:00 +12°C° 0 mm 3 m/s 754 mmHg 71%
    19:00 +12°C° 0 mm 2 m/s 755 mmHg 75%
    20:00 +9°C° 0 mm 2 m/s 755 mmHg 79%
    21:00 +8°C° 0 mm 2 m/s 755 mmHg 83%
    22:00 +8°C° 0 mm 1 m/s 755 mmHg 86%
    23:00 +7°C° 0 mm 1 m/s 755 mmHg 88%

    30 Avril, Mardi

    Heure Température Précipitation Vent Pression Humidité
    00:00 +7°C° 0 mm 1 m/s 755 mmHg 90%
    01:00 +6°C° 0 mm 1 m/s 755 mmHg 91%
    02:00 +6°C° 0 mm 1 m/s 755 mmHg 92%
    03:00 +5°C° 0 mm 2 m/s 755 mmHg 93%
    04:00 +6°C° 0 mm 2 m/s 755 mmHg 92%
    05:00 +6°C° 0 mm 2 m/s 755 mmHg 91%
    06:00 +6°C° 0 mm 2 m/s 755 mmHg 89%
    07:00 +9°C° 0 mm 2 m/s 755 mmHg 80%
    08:00 +12°C° 0 mm 2 m/s 755 mmHg 71%
    09:00 +13°C° 0 mm 3 m/s 755 mmHg 62%
    10:00 +16°C° 0 mm 3 m/s 755 mmHg 57%
    11:00 +17°C° 0 mm 3 m/s 755 mmHg 51%
    12:00 +18°C° 0 mm 3 m/s 755 mmHg 45%
    13:00 +18°C° 0 mm 3 m/s 754 mmHg 45%
    14:00 +19°C° 0 mm 3 m/s 754 mmHg 45%
    15:00 +19°C° 0 mm 3 m/s 754 mmHg 46%
    16:00 +18°C° 0 mm 3 m/s 754 mmHg 52%
    17:00 +17°C° 0 mm 3 m/s 753 mmHg 58%
    18:00 +16°C° 0 mm 2 m/s 753 mmHg 65%
    19:00 +14°C° 0 mm 2 m/s 754 mmHg 69%
    20:00 +13°C° 0 mm 2 m/s 754 mmHg 74%
    21:00 +10°C° 0 mm 2 m/s 754 mmHg 79%
    22:00 +9°C° 0 mm 2 m/s 754 mmHg 82%
    23:00 +9°C° 0 mm 2 m/s 754 mmHg 84%

    1 Mai, Mercredi

    Heure Température Précipitation Vent Pression Humidité
    00:00 +8°C° 0 mm 2 m/s 754 mmHg 86%
    01:00 +9°C° 0 mm 1 m/s 753 mmHg 87%
    02:00 +8°C° 0 mm 1 m/s 753 mmHg 89%
    03:00 +8°C° 0 mm 1 m/s 753 mmHg 90%
    04:00 +9°C° 0 mm 1 m/s 753 mmHg 88%
    05:00 +9°C° 0 mm 1 m/s 753 mmHg 87%
    06:00 +10°C° 0 mm 1 m/s 753 mmHg 85%
    07:00 +12°C° 0 mm 1 m/s 752 mmHg 77%
    08:00 +14°C° 0 mm 1 m/s 752 mmHg 70%
    09:00 +17°C° 0 mm 2 m/s 752 mmHg 62%
    10:00 +18°C° 0 mm 2 m/s 752 mmHg 57%
    11:00 +20°C° 0 mm 1 m/s 752 mmHg 52%
    12:00 +22°C° 0 mm 1 m/s 751 mmHg 47%
    13:00 +22°C° 0 mm 1 m/s 751 mmHg 46%
    14:00 +22°C° 0 mm 1 m/s 750 mmHg 45%
    15:00 +21°C° 0 mm 0 m/s 750 mmHg 44%
    16:00 +21°C° 0 mm 1 m/s 750 mmHg 50%
    17:00 +20°C° 0 mm 1 m/s 749 mmHg 56%
    18:00 +19°C° 0 mm 1 m/s 749 mmHg 63%
    19:00 +18°C° 0 mm 1 m/s 749 mmHg 67%
    20:00 +15°C° 0 mm 1 m/s 749 mmHg 71%
    21:00 +14°C° 0 mm 1 m/s 749 mmHg 75%
    22:00 +13°C° 0 mm 1 m/s 749 mmHg 77%
    23:00 +13°C° 0 mm 1 m/s 749 mmHg 79%
    Voir plus